Location: Gaast
(52.9002°N, 5.8891°E)
Time: 06:02:26
(UTC+00:00)

PSLV R/B - Pass Details

Date: 18 November 2025
Orbit: 561 x 589 km, 98.0° (Epoch: 11 December)

Event Time Altitude Azimuth Distance (km) Brightness Sun altitude
Rises 17:51:25 0° 163° (SSE) 2,758 6.8 -19.8°
Reaches altitude 10° 17:53:33 10° 163° (SSE) 1,862 5.9 -20.1°
Maximum altitude 17:57:36 89° 80° (E) 572 3.3 -20.7°
Drops below altitude 10° 18:01:39 10° 345° (NNW) 1,868 6.1 -21.3°
Sets 18:03:47 0° 346° (NNW) 2,768 7.0 -21.6°
